DAL647 CYHM-KSFO

Flight info

Callsign DAL647
Flight time 4h 42m
Altitude 38000
Route NUBER DCT OSH DCT LAAKE/N0474F400 DCT ATY DCT GILTE DCT ODDLL DCT RICCO Q138 ROOHZ DCT FIMUV DCT LEGGS BDEGA4
Aircraft B772/H-SDE2E3FGHIJ5LORVWXY/LB1D1

Departure

Time 2026-04-23 14:36
Airport John C. Munro Hamilton International Airport (CYHM)

Arrival

Time 2026-04-23 19:19
Airport San Francisco International Airport (KSFO)
Time Latitude Longitude Altitude Speed Heading
2026-04-23 14:15 43.16053 -79.92426 779 ft 0 kts 188°
2026-04-23 14:25 43.16054 -79.92427 779 ft 4 kts 331°
2026-04-23 14:25 43.16079 -79.92441 779 ft 4 kts 340°
2026-04-23 14:26 43.16100 -79.92451 779 ft 4 kts 341°
2026-04-23 14:26 43.16113 -79.92457 780 ft 4 kts 341°
2026-04-23 14:26 43.16120 -79.92460 780 ft 1 kts 343°
2026-04-23 14:28 43.16119 -79.92460 780 ft 0 kts 343°
2026-04-23 14:29 43.16119 -79.92459 780 ft 0 kts 343°
2026-04-23 14:29 43.16128 -79.92463 780 ft 8 kts 344°
2026-04-23 14:29 43.16251 -79.92452 781 ft 22 kts 12°
2026-04-23 14:29 43.16395 -79.92389 782 ft 22 kts 17°
2026-04-23 14:30 43.16542 -79.92360 786 ft 22 kts 339°
2026-04-23 14:30 43.16636 -79.92516 787 ft 22 kts 317°
2026-04-23 14:30 43.16764 -79.92627 786 ft 22 kts 330°
2026-04-23 14:30 43.16896 -79.92729 783 ft 22 kts 330°
2026-04-23 14:31 43.17027 -79.92834 782 ft 22 kts 329°
2026-04-23 14:31 43.17158 -79.92937 785 ft 22 kts 331°
2026-04-23 14:31 43.17291 -79.93036 787 ft 22 kts 332°
2026-04-23 14:31 43.17394 -79.93175 788 ft 22 kts 297°
2026-04-23 14:32 43.17423 -79.93273 786 ft 22 kts 285°
2026-04-23 14:32 43.17456 -79.93441 785 ft 22 kts 285°
2026-04-23 14:32 43.17478 -79.93546 785 ft 22 kts 286°
2026-04-23 14:33 43.17573 -79.93675 783 ft 22 kts
2026-04-23 14:33 43.17709 -79.93705 785 ft 22 kts 300°
2026-04-23 14:33 43.17745 -79.93906 786 ft 22 kts 282°
2026-04-23 14:33 43.17778 -79.94108 789 ft 22 kts 288°
2026-04-23 14:34 43.17825 -79.94304 789 ft 22 kts 288°
2026-04-23 14:34 43.17873 -79.94500 791 ft 22 kts 289°
2026-04-23 14:34 43.17922 -79.94696 788 ft 22 kts 289°
2026-04-23 14:34 43.17971 -79.94888 789 ft 22 kts 289°
2026-04-23 14:35 43.18006 -79.95089 791 ft 22 kts 268°
2026-04-23 14:35 43.18029 -79.95276 795 ft 19 kts 332°
2026-04-23 14:35 43.18083 -79.95223 795 ft 12 kts 97°
2026-04-23 14:35 43.18027 -79.95142 793 ft 12 kts 131°
2026-04-23 14:36 43.17998 -79.95035 790 ft 15 kts 107°
2026-04-23 14:36 43.17888 -79.94524 791 ft 104 kts 110°
2026-04-23 14:36 43.17563 -79.93194 829 ft 183 kts 105°
2026-04-23 14:36 43.17135 -79.91446 1667 ft 204 kts 107°
2026-04-23 14:37 43.16743 -79.89532 2978 ft 209 kts 103°
2026-04-23 14:37 43.16341 -79.87472 3574 ft 237 kts 106°
2026-04-23 14:37 43.15823 -79.85213 3942 ft 257 kts 107°
2026-04-23 14:37 43.15371 -79.82794 4414 ft 266 kts 90°
2026-04-23 14:38 43.15826 -79.80389 5043 ft 268 kts 54°
2026-04-23 14:38 43.17214 -79.78790 5905 ft 261 kts 18°
2026-04-23 14:38 43.18982 -79.78469 6758 ft 257 kts 352°
2026-04-23 14:38 43.20691 -79.79160 7564 ft 257 kts 333°
2026-04-23 14:39 43.22141 -79.80581 8321 ft 261 kts 311°
2026-04-23 14:39 43.23130 -79.82665 8994 ft 263 kts 301°
2026-04-23 14:39 43.24030 -79.84870 9785 ft 266 kts 301°
2026-04-23 14:39 43.24934 -79.87100 10512 ft 272 kts 302°
2026-04-23 14:40 43.25900 -79.89469 10699 ft 298 kts 302°
2026-04-23 14:40 43.26958 -79.92055 10924 ft 323 kts 302°
2026-04-23 14:40 43.28083 -79.94795 11540 ft 334 kts 302°
2026-04-23 14:40 43.29238 -79.97602 12324 ft 341 kts 302°
2026-04-23 14:41 43.30398 -80.00419 13229 ft 345 kts 302°
2026-04-23 14:41 43.31585 -80.03295 14195 ft 347 kts 303°
2026-04-23 14:41 43.32783 -80.06191 15059 ft 350 kts 302°
2026-04-23 14:41 43.33993 -80.09119 15899 ft 355 kts 302°
2026-04-23 14:42 43.35218 -80.12081 16735 ft 359 kts 302°
2026-04-23 14:42 43.36461 -80.15089 17548 ft 364 kts 301°
2026-04-23 14:42 43.37719 -80.18137 18336 ft 370 kts 301°
2026-04-23 14:42 43.38999 -80.21243 19027 ft 376 kts 301°
2026-04-23 14:43 43.40296 -80.24394 19802 ft 379 kts 301°
2026-04-23 14:43 43.41599 -80.27559 20602 ft 381 kts 301°
2026-04-23 14:43 43.42911 -80.30753 21416 ft 384 kts 301°
2026-04-23 14:43 43.44204 -80.33989 22175 ft 388 kts 297°
2026-04-23 14:44 43.45225 -80.37398 22901 ft 394 kts 291°
2026-04-23 14:44 43.46025 -80.41033 23639 ft 399 kts 287°
2026-04-23 14:44 43.46573 -80.44804 24239 ft 404 kts 282°
2026-04-23 14:44 43.46966 -80.48655 24794 ft 408 kts 281°
2026-04-23 14:45 43.47343 -80.52543 25327 ft 412 kts 281°
2026-04-23 14:45 43.47719 -80.56470 25828 ft 416 kts 281°
2026-04-23 14:45 43.48100 -80.60452 26311 ft 421 kts 281°
2026-04-23 14:45 43.48487 -80.64466 26836 ft 423 kts 281°
2026-04-23 14:46 43.48875 -80.68464 27350 ft 426 kts 281°
2026-04-23 14:46 43.49272 -80.72525 27802 ft 430 kts 281°
2026-04-23 14:46 43.49672 -80.76619 28219 ft 433 kts 282°
2026-04-23 14:46 43.50076 -80.80752 28645 ft 437 kts 282°
2026-04-23 14:47 43.50482 -80.84915 29080 ft 440 kts 282°
2026-04-23 14:47 43.50889 -80.89109 29497 ft 442 kts 282°
2026-04-23 14:47 43.51298 -80.93331 29838 ft 445 kts 281°
2026-04-23 14:47 43.51708 -80.97582 30138 ft 449 kts 281°
2026-04-23 14:48 43.52113 -81.01807 30427 ft 451 kts 281°
2026-04-23 14:48 43.52523 -81.06100 30733 ft 452 kts 281°
2026-04-23 14:48 43.52932 -81.10406 31017 ft 454 kts 281°
2026-04-23 14:48 43.53342 -81.14737 31283 ft 456 kts 281°
2026-04-23 14:49 43.53750 -81.19067 31622 ft 455 kts 281°
2026-04-23 14:49 43.54156 -81.23398 32023 ft 453 kts 281°
2026-04-23 14:49 43.54556 -81.27685 32434 ft 450 kts 281°
2026-04-23 14:49 43.54954 -81.31965 32746 ft 450 kts 281°
2026-04-23 14:50 43.55352 -81.36247 33054 ft 450 kts 281°
2026-04-23 14:50 43.55748 -81.40520 33428 ft 449 kts 281°
2026-04-23 14:50 43.56141 -81.44792 33822 ft 447 kts 281°
2026-04-23 14:50 43.56525 -81.48985 34192 ft 446 kts 281°
2026-04-23 14:51 43.56917 -81.53273 34507 ft 445 kts 281°
2026-04-23 14:51 43.57298 -81.57456 34787 ft 444 kts 281°
2026-04-23 14:51 43.57681 -81.61680 35077 ft 444 kts 281°
2026-04-23 14:51 43.58062 -81.65903 35383 ft 443 kts 281°
2026-04-23 14:52 43.58440 -81.70120 35696 ft 442 kts 281°
2026-04-23 14:52 43.58816 -81.74318 35987 ft 441 kts 281°
2026-04-23 14:52 43.59189 -81.78511 36273 ft 440 kts 281°
2026-04-23 14:52 43.59562 -81.82710 36576 ft 440 kts 281°
2026-04-23 14:53 43.59932 -81.86906 36859 ft 439 kts 281°
2026-04-23 14:53 43.60299 -81.91081 37131 ft 438 kts 281°
2026-04-23 14:53 43.60660 -81.95204 37401 ft 437 kts 281°
2026-04-23 14:53 43.61023 -81.99366 37677 ft 436 kts 281°
2026-04-23 14:54 43.61384 -82.03521 37908 ft 437 kts 281°
2026-04-23 14:54 43.61747 -82.07713 37953 ft 439 kts 281°
2026-04-23 14:54 43.62465 -82.16071 37982 ft 437 kts 281°
2026-04-23 14:55 43.63169 -82.24365 37995 ft 434 kts 281°
2026-04-23 14:55 43.63867 -82.32629 37988 ft 433 kts 281°
2026-04-23 14:56 43.64561 -82.40907 37963 ft 434 kts 279°
2026-04-23 14:56 43.65245 -82.49158 37974 ft 435 kts 279°
2026-04-23 14:57 43.65928 -82.57471 37967 ft 436 kts 279°
2026-04-23 14:57 43.66607 -82.65818 37959 ft 437 kts 279°
2026-04-23 14:58 43.67278 -82.74131 37943 ft 438 kts 279°
2026-04-23 14:58 43.67947 -82.82504 37932 ft 438 kts 278°
2026-04-23 14:59 43.68611 -82.90887 37938 ft 439 kts 278°
2026-04-23 14:59 43.69269 -82.99276 37935 ft 439 kts 278°
2026-04-23 15:00 43.69922 -83.07674 37936 ft 439 kts 278°
2026-04-23 15:00 43.70568 -83.16075 37923 ft 439 kts 278°
2026-04-23 15:01 43.71207 -83.24468 37938 ft 439 kts 278°
2026-04-23 15:01 43.71840 -83.32858 37934 ft 439 kts 278°
2026-04-23 15:02 43.72463 -83.41208 37936 ft 439 kts 278°
2026-04-23 15:02 43.73085 -83.49621 37939 ft 440 kts 278°
2026-04-23 15:03 43.73702 -83.58044 37927 ft 440 kts 277°
2026-04-23 15:03 43.74313 -83.66473 37939 ft 441 kts 277°
2026-04-23 15:04 43.74919 -83.74924 37937 ft 441 kts 277°
2026-04-23 15:04 43.75515 -83.83327 37935 ft 442 kts 277°
2026-04-23 15:05 43.76109 -83.91793 37916 ft 442 kts 277°
2026-04-23 15:05 43.76697 -84.00259 37926 ft 442 kts 276°
2026-04-23 15:06 43.77278 -84.08720 37922 ft 442 kts 276°
2026-04-23 15:06 43.77757 -84.15755 37919 ft 442 kts 276°
2026-04-23 15:07 43.78328 -84.24236 37918 ft 442 kts 276°
2026-04-23 15:07 43.78891 -84.32706 37910 ft 442 kts 276°
2026-04-23 15:08 43.79449 -84.41170 37918 ft 442 kts 276°
2026-04-23 15:09 43.80273 -84.53877 37905 ft 442 kts 276°
2026-04-23 15:09 43.80815 -84.62354 37915 ft 442 kts 276°
2026-04-23 15:10 43.81349 -84.70801 37896 ft 442 kts 275°
2026-04-23 15:10 43.81879 -84.79298 37902 ft 443 kts 275°
2026-04-23 15:11 43.82405 -84.87810 37900 ft 443 kts 275°
2026-04-23 15:11 43.82923 -84.96312 37896 ft 443 kts 275°
2026-04-23 15:12 43.83432 -85.04774 37888 ft 443 kts 275°
2026-04-23 15:12 43.83938 -85.13293 37888 ft 443 kts 275°
2026-04-23 15:13 43.84437 -85.21793 37887 ft 443 kts 275°
2026-04-23 15:13 43.84931 -85.30306 37880 ft 443 kts 275°
2026-04-23 15:14 43.85417 -85.38816 37873 ft 443 kts 275°
2026-04-23 15:14 43.85897 -85.47325 37867 ft 442 kts 275°
2026-04-23 15:15 43.86367 -85.55771 37871 ft 442 kts 274°
2026-04-23 15:15 43.86834 -85.64263 37870 ft 442 kts 274°
2026-04-23 15:16 43.87295 -85.72760 37867 ft 442 kts 274°
2026-04-23 15:16 43.87748 -85.81251 37869 ft 442 kts 274°
2026-04-23 15:17 43.88196 -85.89751 37863 ft 442 kts 274°
2026-04-23 15:17 43.88637 -85.98243 37862 ft 442 kts 274°
2026-04-23 15:18 43.89069 -86.06685 37864 ft 442 kts 274°
2026-04-23 15:18 43.89499 -86.15193 37863 ft 442 kts 274°
2026-04-23 15:19 43.89922 -86.23697 37861 ft 442 kts 274°
2026-04-23 15:19 43.90338 -86.32210 37841 ft 442 kts 274°
2026-04-23 15:20 43.90748 -86.40722 37844 ft 441 kts 274°
2026-04-23 15:20 43.91148 -86.49152 37842 ft 441 kts 274°
2026-04-23 15:21 43.91545 -86.57648 37856 ft 441 kts 273°
2026-04-23 15:21 43.91936 -86.66148 37856 ft 441 kts 273°
2026-04-23 15:22 43.92320 -86.74642 37857 ft 441 kts 273°
2026-04-23 15:22 43.92697 -86.83126 37870 ft 441 kts 273°
2026-04-23 15:23 43.93069 -86.91623 37880 ft 441 kts 273°
2026-04-23 15:23 43.93433 -87.00111 37877 ft 441 kts 273°
2026-04-23 15:24 43.93793 -87.08618 37873 ft 441 kts 272°
2026-04-23 15:24 43.94144 -87.17067 37871 ft 441 kts 272°
2026-04-23 15:25 43.94490 -87.25566 37872 ft 441 kts 272°
2026-04-23 15:25 43.94831 -87.34083 37859 ft 441 kts 272°
2026-04-23 15:26 43.95165 -87.42599 37854 ft 441 kts 272°
2026-04-23 15:26 43.95491 -87.51057 37848 ft 441 kts 272°
2026-04-23 15:27 43.95812 -87.59574 37841 ft 441 kts 272°
2026-04-23 15:27 43.96127 -87.68083 37838 ft 441 kts 272°
2026-04-23 15:28 43.96435 -87.76597 37832 ft 441 kts 272°
2026-04-23 15:28 43.96739 -87.85114 37832 ft 441 kts 272°
2026-04-23 15:29 43.97035 -87.93630 37826 ft 441 kts 272°
2026-04-23 15:29 43.97323 -88.02087 37816 ft 442 kts 272°
2026-04-23 15:30 43.97606 -88.10607 37819 ft 442 kts 271°
2026-04-23 15:30 43.97884 -88.19132 37803 ft 442 kts 271°
2026-04-23 15:31 43.98155 -88.27652 37800 ft 442 kts 271°
2026-04-23 15:31 43.98420 -88.36182 37802 ft 441 kts 271°
2026-04-23 15:32 43.98678 -88.44656 37809 ft 441 kts 271°
2026-04-23 15:32 43.98938 -88.53174 37803 ft 441 kts 272°
2026-04-23 15:33 43.99847 -88.61610 37804 ft 443 kts 280°
2026-04-23 15:33 44.01148 -88.69977 37806 ft 443 kts 280°
2026-04-23 15:34 44.02435 -88.78375 37812 ft 443 kts 280°
2026-04-23 15:34 44.03691 -88.86720 37799 ft 444 kts 279°
2026-04-23 15:35 44.04946 -88.95142 37793 ft 445 kts 279°
2026-04-23 15:35 44.06195 -89.03580 37778 ft 445 kts 279°
2026-04-23 15:36 44.07430 -89.11969 37774 ft 445 kts 279°
2026-04-23 15:36 44.08670 -89.20426 37777 ft 445 kts 279°
2026-04-23 15:37 44.09900 -89.28867 37775 ft 445 kts 279°
2026-04-23 15:37 44.10918 -89.35893 37770 ft 446 kts 279°
2026-04-23 15:38 44.12344 -89.45778 37761 ft 446 kts 279°
2026-04-23 15:38 44.13557 -89.54240 37752 ft 446 kts 279°
2026-04-23 15:39 44.14756 -89.62655 37755 ft 446 kts 279°
2026-04-23 15:39 44.15956 -89.71119 37745 ft 446 kts 279°
2026-04-23 15:40 44.17151 -89.79595 37745 ft 446 kts 279°
2026-04-23 15:40 44.18339 -89.88071 37746 ft 446 kts 279°
2026-04-23 15:41 44.19521 -89.96557 37747 ft 446 kts 279°
2026-04-23 15:41 44.20698 -90.05049 37739 ft 447 kts 278°
2026-04-23 15:42 44.21864 -90.13512 37743 ft 448 kts 278°
2026-04-23 15:42 44.23035 -90.22059 37744 ft 449 kts 278°
2026-04-23 15:43 44.24201 -90.30625 37724 ft 449 kts 278°
2026-04-23 15:43 44.25361 -90.39194 37735 ft 450 kts 278°
2026-04-23 15:44 44.26518 -90.47794 37704 ft 451 kts 278°
2026-04-23 15:44 44.27661 -90.56332 37700 ft 450 kts 278°
2026-04-23 15:45 44.28801 -90.64907 37694 ft 449 kts 278°
2026-04-23 15:45 44.29935 -90.73486 37699 ft 448 kts 278°
2026-04-23 15:46 44.31058 -90.82036 37691 ft 448 kts 278°
2026-04-23 15:46 44.32177 -90.90605 37682 ft 449 kts 278°
2026-04-23 15:47 44.33292 -90.99192 37677 ft 449 kts 278°
2026-04-23 15:47 44.34392 -91.07725 37668 ft 449 kts 278°
2026-04-23 15:48 44.35492 -91.16315 37673 ft 449 kts 278°
2026-04-23 15:48 44.36589 -91.24922 37659 ft 449 kts 278°
2026-04-23 15:49 44.37679 -91.33524 37662 ft 450 kts 278°
2026-04-23 15:49 44.38763 -91.42140 37654 ft 450 kts 278°
2026-04-23 15:50 44.39839 -91.50753 37646 ft 450 kts 278°
2026-04-23 15:50 44.40904 -91.59336 37635 ft 450 kts 277°
2026-04-23 15:51 44.41970 -91.67973 37646 ft 451 kts 277°
2026-04-23 15:51 44.43033 -91.76629 37628 ft 452 kts 277°
2026-04-23 15:52 44.44089 -91.85301 37619 ft 452 kts 277°
2026-04-23 15:52 44.45141 -91.93992 37621 ft 452 kts 276°
2026-04-23 15:53 44.46177 -92.02616 37615 ft 452 kts 276°
2026-04-23 15:53 44.47214 -92.11308 37605 ft 452 kts 276°
2026-04-23 15:54 44.48244 -92.19992 37586 ft 452 kts 276°
2026-04-23 15:54 44.49097 -92.27214 37590 ft 452 kts 276°
2026-04-23 15:55 44.50114 -92.35902 37590 ft 452 kts 275°
2026-04-23 15:55 44.51291 -92.46017 37587 ft 452 kts 275°
2026-04-23 15:56 44.52293 -92.54701 37579 ft 451 kts 275°
2026-04-23 15:56 44.53127 -92.61974 37575 ft 451 kts 275°
2026-04-23 15:57 44.54110 -92.70611 37585 ft 451 kts 274°
2026-04-23 15:57 44.55094 -92.79305 37590 ft 451 kts 274°
2026-04-23 15:58 44.56072 -92.88002 37559 ft 452 kts 274°
2026-04-23 15:58 44.57043 -92.96706 37564 ft 452 kts 274°
2026-04-23 15:59 44.58005 -93.05383 37585 ft 452 kts 273°
2026-04-23 15:59 44.58970 -93.14119 37563 ft 453 kts 273°
2026-04-23 16:00 44.59972 -93.22858 37553 ft 454 kts 273°
2026-04-23 16:00 44.60986 -93.31635 37555 ft 455 kts 273°
2026-04-23 16:01 44.61988 -93.40400 37554 ft 455 kts 273°
2026-04-23 16:01 44.62974 -93.49119 37543 ft 455 kts 273°
2026-04-23 16:02 44.63957 -93.57888 37522 ft 454 kts 273°
2026-04-23 16:02 44.64933 -93.66653 37518 ft 454 kts 273°
2026-04-23 16:03 44.65902 -93.75423 37516 ft 454 kts 273°
2026-04-23 16:03 44.66865 -93.84199 37517 ft 455 kts 272°
2026-04-23 16:04 44.67824 -93.93007 37510 ft 456 kts 272°
2026-04-23 16:04 44.68776 -94.01814 37511 ft 456 kts 272°
2026-04-23 16:05 44.69564 -94.09151 37502 ft 457 kts 272°
2026-04-23 16:05 44.70659 -94.19430 37522 ft 457 kts 272°
2026-04-23 16:06 44.71595 -94.28283 37507 ft 458 kts 272°
2026-04-23 16:06 44.72526 -94.37163 37497 ft 459 kts 272°
2026-04-23 16:07 44.73444 -94.45977 37495 ft 459 kts 272°
2026-04-23 16:07 44.74361 -94.54854 37492 ft 459 kts 272°
2026-04-23 16:08 44.75272 -94.63748 37485 ft 459 kts 271°
2026-04-23 16:08 44.76175 -94.72623 37459 ft 458 kts 271°
2026-04-23 16:09 44.77070 -94.81500 37465 ft 458 kts 271°
2026-04-23 16:09 44.77953 -94.90322 37471 ft 457 kts 271°
2026-04-23 16:10 44.78833 -94.99198 37472 ft 457 kts 271°
2026-04-23 16:10 44.79706 -95.08055 37473 ft 455 kts 271°
2026-04-23 16:11 44.80567 -95.16875 37469 ft 454 kts 271°
2026-04-23 16:11 44.81420 -95.25682 37461 ft 453 kts 271°
2026-04-23 16:12 44.82266 -95.34488 37479 ft 453 kts 271°
2026-04-23 16:12 44.83097 -95.43211 37458 ft 451 kts 271°
2026-04-23 16:13 44.83924 -95.51961 37457 ft 449 kts 271°
2026-04-23 16:13 44.85147 -95.65051 37429 ft 448 kts 270°
2026-04-23 16:14 44.85952 -95.73770 37456 ft 449 kts 270°
2026-04-23 16:14 44.86749 -95.82471 37432 ft 450 kts 270°
2026-04-23 16:15 44.87548 -95.91250 37421 ft 451 kts 270°
2026-04-23 16:15 44.88339 -96.00030 37407 ft 452 kts 270°
2026-04-23 16:16 44.89125 -96.08822 37421 ft 452 kts 270°
2026-04-23 16:16 44.89900 -96.17586 37448 ft 455 kts 270°
2026-04-23 16:17 44.90679 -96.26474 37427 ft 457 kts 270°
2026-04-23 16:17 44.91455 -96.35383 37411 ft 458 kts 270°
2026-04-23 16:18 44.92224 -96.44298 37396 ft 457 kts 270°
2026-04-23 16:18 44.92985 -96.53209 37380 ft 458 kts 270°
2026-04-23 16:19 44.93739 -96.62129 37349 ft 458 kts 270°
2026-04-23 16:19 44.94482 -96.70996 37359 ft 457 kts 270°
2026-04-23 16:20 44.94853 -96.75465 37487 ft 459 kts 270°
2026-04-23 16:20 44.95224 -96.79955 37760 ft 459 kts 270°
2026-04-23 16:20 44.95592 -96.84413 38082 ft 457 kts 270°
2026-04-23 16:20 44.95958 -96.88868 38367 ft 456 kts 270°
2026-04-23 16:21 44.96322 -96.93316 38536 ft 457 kts 270°
2026-04-23 16:21 44.96682 -96.97770 38726 ft 457 kts 270°
2026-04-23 16:21 44.97043 -97.02230 38909 ft 457 kts 270°
2026-04-23 16:21 44.97401 -97.06687 39105 ft 457 kts 271°
2026-04-23 16:22 44.97729 -97.11151 39287 ft 455 kts 268°
2026-04-23 16:22 44.97807 -97.15553 39420 ft 452 kts 263°
2026-04-23 16:22 44.97190 -97.24340 39524 ft 450 kts 258°
2026-04-23 16:23 44.96388 -97.33126 39523 ft 451 kts 258°
2026-04-23 16:23 44.95599 -97.41921 39513 ft 452 kts 258°
2026-04-23 16:24 44.94820 -97.50719 39483 ft 451 kts 258°
2026-04-23 16:24 44.94040 -97.59512 39478 ft 451 kts 258°
2026-04-23 16:25 44.93254 -97.68290 39480 ft 450 kts 258°
2026-04-23 16:25 44.92468 -97.76989 39477 ft 447 kts 258°
2026-04-23 16:26 44.91676 -97.85683 39480 ft 445 kts 258°
2026-04-23 16:26 44.90879 -97.94343 39481 ft 444 kts 258°
2026-04-23 16:27 44.90077 -98.02982 39513 ft 444 kts 258°
2026-04-23 16:27 44.89272 -98.11588 39495 ft 444 kts 258°
2026-04-23 16:28 44.88456 -98.20228 39488 ft 444 kts 258°
2026-04-23 16:28 44.87634 -98.28876 39491 ft 445 kts 258°
2026-04-23 16:29 44.86805 -98.37514 39490 ft 445 kts 258°
2026-04-23 16:29 44.85970 -98.46162 39497 ft 445 kts 259°
2026-04-23 16:30 44.85125 -98.54829 39489 ft 446 kts 259°
2026-04-23 16:30 44.84278 -98.63447 39491 ft 446 kts 259°
2026-04-23 16:31 44.83421 -98.72098 39495 ft 446 kts 259°
2026-04-23 16:31 44.82557 -98.80762 39506 ft 447 kts 259°
2026-04-23 16:32 44.81685 -98.89433 39500 ft 447 kts 259°
2026-04-23 16:32 44.80805 -98.98103 39502 ft 447 kts 259°
2026-04-23 16:33 44.79920 -99.06772 39488 ft 447 kts 259°
2026-04-23 16:33 44.79034 -99.15378 39519 ft 447 kts 259°
2026-04-23 16:34 44.78135 -99.24049 39502 ft 448 kts 259°
2026-04-23 16:34 44.77225 -99.32748 39506 ft 448 kts 259°
2026-04-23 16:35 44.76309 -99.41443 39507 ft 449 kts 258°
2026-04-23 16:35 44.75393 -99.50079 39511 ft 449 kts 258°
2026-04-23 16:36 44.74462 -99.58791 39516 ft 451 kts 259°
2026-04-23 16:36 44.73520 -99.67534 39516 ft 453 kts 259°
2026-04-23 16:37 44.72567 -99.76312 39524 ft 454 kts 259°
2026-04-23 16:37 44.71606 -99.85109 39522 ft 456 kts 259°
2026-04-23 16:38 44.70633 -99.93948 39529 ft 458 kts 259°
2026-04-23 16:38 44.69651 -100.02804 39531 ft 460 kts 258°
2026-04-23 16:39 44.68665 -100.11637 39536 ft 461 kts 258°
2026-04-23 16:39 44.67664 -100.20548 39549 ft 462 kts 258°
2026-04-23 16:40 44.66551 -100.29442 39559 ft 462 kts 257°
2026-04-23 16:40 44.65299 -100.38333 39546 ft 463 kts 256°
2026-04-23 16:41 44.64049 -100.47157 39545 ft 464 kts 256°
2026-04-23 16:41 44.62801 -100.56055 39542 ft 464 kts 256°
2026-04-23 16:42 44.61559 -100.64941 39565 ft 463 kts 256°
2026-04-23 16:42 44.60315 -100.73797 39549 ft 461 kts 256°
2026-04-23 16:43 44.59077 -100.82553 39555 ft 458 kts 256°
2026-04-23 16:43 44.57832 -100.91302 39563 ft 457 kts 256°
2026-04-23 16:44 44.56579 -101.00047 39560 ft 458 kts 256°
2026-04-23 16:44 44.55531 -101.07330 39567 ft 459 kts 256°
2026-04-23 16:45 44.54054 -101.17534 39571 ft 460 kts 256°
2026-04-23 16:45 44.52982 -101.24903 39571 ft 460 kts 255°
2026-04-23 16:46 44.51703 -101.33646 39572 ft 461 kts 256°
2026-04-23 16:46 44.50411 -101.42429 39585 ft 459 kts 256°
2026-04-23 16:47 44.49117 -101.51186 39588 ft 457 kts 256°
2026-04-23 16:47 44.47818 -101.59915 39593 ft 456 kts 255°
2026-04-23 16:48 44.46524 -101.68567 39597 ft 457 kts 255°
2026-04-23 16:48 44.45210 -101.77297 39592 ft 458 kts 255°
2026-04-23 16:49 44.43888 -101.86031 39595 ft 458 kts 255°
2026-04-23 16:49 44.42560 -101.94760 39618 ft 457 kts 254°
2026-04-23 16:50 44.41240 -102.03401 39613 ft 457 kts 254°
2026-04-23 16:50 44.39907 -102.12067 39615 ft 455 kts 256°
2026-04-23 16:51 44.38571 -102.20714 39627 ft 453 kts 255°
2026-04-23 16:51 44.37228 -102.29352 39634 ft 454 kts 255°
2026-04-23 16:52 44.35888 -102.37922 39635 ft 455 kts 255°
2026-04-23 16:52 44.34531 -102.46557 39643 ft 455 kts 255°
2026-04-23 16:53 44.33175 -102.55156 39642 ft 449 kts 255°
2026-04-23 16:53 44.31818 -102.63699 39658 ft 450 kts 255°
2026-04-23 16:54 44.30452 -102.72267 39656 ft 453 kts 254°
2026-04-23 16:54 44.29082 -102.80816 39681 ft 451 kts 255°
2026-04-23 16:55 44.27723 -102.89253 39672 ft 448 kts 256°
2026-04-23 16:55 44.26345 -102.97753 39676 ft 451 kts 254°
2026-04-23 16:56 44.24951 -103.06310 39691 ft 452 kts 255°
2026-04-23 16:56 44.23555 -103.14847 39656 ft 453 kts 256°
2026-04-23 16:57 44.22140 -103.23449 39643 ft 457 kts 256°
2026-04-23 16:57 44.20707 -103.32116 39654 ft 460 kts 256°
2026-04-23 16:58 44.19259 -103.40836 39665 ft 461 kts 256°
2026-04-23 16:58 44.17818 -103.49475 39661 ft 458 kts 255°
2026-04-23 16:59 44.16378 -103.58059 39691 ft 454 kts 255°
2026-04-23 16:59 44.14933 -103.66628 39712 ft 456 kts 255°
2026-04-23 17:00 44.13471 -103.75248 39718 ft 457 kts 255°
2026-04-23 17:00 44.12000 -103.83889 39744 ft 457 kts 255°
2026-04-23 17:01 44.10528 -103.92496 39749 ft 456 kts 255°
2026-04-23 17:01 44.09062 -104.01026 39760 ft 455 kts 255°
2026-04-23 17:02 44.07585 -104.09577 39792 ft 455 kts 255°
2026-04-23 17:02 44.06102 -104.18130 39806 ft 454 kts 255°
2026-04-23 17:03 44.04706 -104.26723 39820 ft 456 kts 259°
2026-04-23 17:03 44.04014 -104.35504 39818 ft 458 kts 263°
2026-04-23 17:04 44.03389 -104.44259 39816 ft 458 kts 263°
2026-04-23 17:04 44.02737 -104.53067 39802 ft 458 kts 262°
2026-04-23 17:05 44.02067 -104.61859 39795 ft 458 kts 262°
2026-04-23 17:05 44.01385 -104.70658 39782 ft 457 kts 262°
2026-04-23 17:06 44.00704 -104.79374 39773 ft 457 kts 262°
2026-04-23 17:06 44.00012 -104.88149 39768 ft 457 kts 262°
2026-04-23 17:07 43.99314 -104.96918 39784 ft 457 kts 262°
2026-04-23 17:07 43.98607 -105.05700 39767 ft 458 kts 262°
2026-04-23 17:08 43.97894 -105.14491 39778 ft 458 kts 262°
2026-04-23 17:08 43.97173 -105.23286 39772 ft 458 kts 262°
2026-04-23 17:09 43.96448 -105.32032 39779 ft 459 kts 262°
2026-04-23 17:09 43.95713 -105.40836 39775 ft 459 kts 262°
2026-04-23 17:10 43.94965 -105.49698 39774 ft 459 kts 262°
2026-04-23 17:10 43.94219 -105.58455 39781 ft 460 kts 262°
2026-04-23 17:11 43.93462 -105.67269 39778 ft 460 kts 262°
2026-04-23 17:11 43.92697 -105.76092 39776 ft 460 kts 262°
2026-04-23 17:12 43.91927 -105.84896 39783 ft 459 kts 261°
2026-04-23 17:12 43.91150 -105.93686 39780 ft 459 kts 261°
2026-04-23 17:13 43.90368 -106.02465 39787 ft 458 kts 261°
2026-04-23 17:13 43.89578 -106.11250 39787 ft 459 kts 261°
2026-04-23 17:14 43.88781 -106.20036 39772 ft 460 kts 261°
2026-04-23 17:14 43.87977 -106.28830 39765 ft 460 kts 261°
2026-04-23 17:15 43.87172 -106.37566 39775 ft 459 kts 261°
2026-04-23 17:15 43.86354 -106.46356 39772 ft 460 kts 261°
2026-04-23 17:16 43.85527 -106.55164 39764 ft 460 kts 261°
2026-04-23 17:16 43.84700 -106.63909 39765 ft 460 kts 261°
2026-04-23 17:17 43.83861 -106.72702 39766 ft 460 kts 261°
2026-04-23 17:17 43.83016 -106.81489 39774 ft 460 kts 261°
2026-04-23 17:18 43.81738 -106.94651 39782 ft 459 kts 261°
2026-04-23 17:19 43.80821 -107.03408 39790 ft 459 kts 258°
2026-04-23 17:19 43.79116 -107.11865 39796 ft 458 kts 252°
2026-04-23 17:20 43.77148 -107.20255 39797 ft 458 kts 252°
2026-04-23 17:21 43.73240 -107.37055 39813 ft 458 kts 252°
2026-04-23 17:21 43.70318 -107.49645 39818 ft 458 kts 252°
2026-04-23 17:22 43.67397 -107.62161 39814 ft 457 kts 252°
2026-04-23 17:23 43.64453 -107.74699 39804 ft 457 kts 252°
2026-04-23 17:24 43.61498 -107.87213 39799 ft 457 kts 252°
2026-04-23 17:24 43.58523 -107.99742 39789 ft 458 kts 252°
2026-04-23 17:25 43.55544 -108.12215 39787 ft 458 kts 251°
2026-04-23 17:26 43.51534 -108.28902 39781 ft 458 kts 251°
2026-04-23 17:27 43.48527 -108.41334 39766 ft 457 kts 251°
2026-04-23 17:27 43.46509 -108.49638 39762 ft 457 kts 251°
2026-04-23 17:28 43.44486 -108.57935 39748 ft 457 kts 251°
2026-04-23 17:28 43.42457 -108.66221 39750 ft 457 kts 251°
2026-04-23 17:29 43.40419 -108.74518 39745 ft 457 kts 251°
2026-04-23 17:30 43.37712 -108.85493 39749 ft 457 kts 251°
2026-04-23 17:30 43.34295 -108.99272 39767 ft 457 kts 251°
2026-04-23 17:31 43.32238 -109.07527 39766 ft 457 kts 251°
2026-04-23 17:31 43.30173 -109.15784 39782 ft 457 kts 251°
2026-04-23 17:32 43.28120 -109.23965 39790 ft 457 kts 251°
2026-04-23 17:32 43.26045 -109.32205 39823 ft 457 kts 251°
2026-04-23 17:33 43.24312 -109.39064 39820 ft 458 kts 251°
2026-04-23 17:33 43.22221 -109.47313 39856 ft 457 kts 251°
2026-04-23 17:34 43.20128 -109.55541 39894 ft 456 kts 251°
2026-04-23 17:35 43.16999 -109.67778 39936 ft 454 kts 251°
2026-04-23 17:35 43.13851 -109.80051 39939 ft 454 kts 251°
2026-04-23 17:36 43.11747 -109.88206 39951 ft 454 kts 251°
2026-04-23 17:36 43.09638 -109.96355 39951 ft 454 kts 251°
2026-04-23 17:37 43.07528 -110.04479 39959 ft 453 kts 251°
2026-04-23 17:38 43.04363 -110.16615 39969 ft 453 kts 251°
2026-04-23 17:38 43.02239 -110.24725 39977 ft 452 kts 251°
2026-04-23 17:39 43.00110 -110.32826 39976 ft 452 kts 251°
2026-04-23 17:39 42.97981 -110.40901 39993 ft 451 kts 251°
2026-04-23 17:40 42.95861 -110.48917 40011 ft 451 kts 251°
2026-04-23 17:40 42.93726 -110.56960 40018 ft 450 kts 251°
2026-04-23 17:41 42.91584 -110.65005 40031 ft 450 kts 251°
2026-04-23 17:41 42.88364 -110.77053 40040 ft 450 kts 251°
2026-04-23 17:42 42.85118 -110.89055 40045 ft 449 kts 250°
2026-04-23 17:43 42.82913 -110.96971 40040 ft 449 kts 250°
2026-04-23 17:43 42.80688 -111.04923 40036 ft 449 kts 250°
2026-04-23 17:44 42.78462 -111.12874 40039 ft 449 kts 250°
2026-04-23 17:44 42.75118 -111.24796 40046 ft 449 kts 250°
2026-04-23 17:45 42.71761 -111.36709 40066 ft 449 kts 250°
2026-04-23 17:46 42.68396 -111.48593 40093 ft 449 kts 250°
2026-04-23 17:46 42.66156 -111.56475 40072 ft 449 kts 250°
2026-04-23 17:47 42.63894 -111.64407 40069 ft 449 kts 250°
2026-04-23 17:48 42.60499 -111.76268 40072 ft 449 kts 250°
2026-04-23 17:48 42.58227 -111.84171 40082 ft 449 kts 250°
2026-04-23 17:49 42.55965 -111.92017 40081 ft 449 kts 250°
2026-04-23 17:49 42.53682 -111.99914 40086 ft 450 kts 250°
2026-04-23 17:50 42.51389 -112.07815 40080 ft 450 kts 250°
2026-04-23 17:50 42.47934 -112.19682 40056 ft 450 kts 250°
2026-04-23 17:51 42.45644 -112.27515 40058 ft 449 kts 250°
2026-04-23 17:52 42.42175 -112.39337 40059 ft 449 kts 250°
2026-04-23 17:52 42.38721 -112.51052 40052 ft 448 kts 250°
2026-04-23 17:53 42.35237 -112.62818 40051 ft 448 kts 250°
2026-04-23 17:54 42.32923 -112.70600 40051 ft 449 kts 250°
2026-04-23 17:54 42.29422 -112.82335 40049 ft 449 kts 250°
2026-04-23 17:55 42.25911 -112.94050 40037 ft 448 kts 249°
2026-04-23 17:56 42.23568 -113.01833 40053 ft 447 kts 249°
2026-04-23 17:56 42.20049 -113.13490 40044 ft 446 kts 249°
2026-04-23 17:57 42.17700 -113.21237 40049 ft 446 kts 249°
2026-04-23 17:58 42.14168 -113.32849 40058 ft 446 kts 249°
2026-04-23 17:58 42.11820 -113.40537 40072 ft 446 kts 249°
2026-04-23 17:59 42.09454 -113.48261 40065 ft 446 kts 249°
2026-04-23 17:59 42.07081 -113.55990 40089 ft 446 kts 249°
2026-04-23 18:00 42.04699 -113.63720 40090 ft 446 kts 249°
2026-04-23 18:00 42.02315 -113.71435 40109 ft 446 kts 249°
2026-04-23 18:01 41.99945 -113.79084 40099 ft 446 kts 249°
2026-04-23 18:01 41.97551 -113.86786 40112 ft 446 kts 249°
2026-04-23 18:02 41.95557 -113.93189 40121 ft 446 kts 249°
2026-04-23 18:02 41.92741 -114.02203 40122 ft 447 kts 249°
2026-04-23 18:03 41.90347 -114.09840 40114 ft 447 kts 249°
2026-04-23 18:03 41.87931 -114.17523 40117 ft 446 kts 249°
2026-04-23 18:04 41.85516 -114.25185 40117 ft 446 kts 249°
2026-04-23 18:04 41.83093 -114.32848 40111 ft 446 kts 249°
2026-04-23 18:05 41.80669 -114.40493 40088 ft 445 kts 249°
2026-04-23 18:05 41.78244 -114.48121 40094 ft 445 kts 249°
2026-04-23 18:06 41.75810 -114.55752 40088 ft 445 kts 249°
2026-04-23 18:06 41.73389 -114.63325 40090 ft 445 kts 249°
2026-04-23 18:07 41.70947 -114.70938 40103 ft 445 kts 249°
2026-04-23 18:07 41.68501 -114.78549 40105 ft 445 kts 249°
2026-04-23 18:08 41.66458 -114.84887 40095 ft 446 kts 249°
2026-04-23 18:08 41.63580 -114.93790 40094 ft 446 kts 249°
2026-04-23 18:09 41.61130 -115.01351 40091 ft 446 kts 249°
2026-04-23 18:09 41.58713 -115.08975 40091 ft 445 kts 250°
2026-04-23 18:10 41.56391 -115.16635 40112 ft 445 kts 250°
2026-04-23 18:10 41.54069 -115.24291 40105 ft 445 kts 250°
2026-04-23 18:11 41.51732 -115.31927 40121 ft 444 kts 250°
2026-04-23 18:11 41.49384 -115.39554 40134 ft 444 kts 250°
2026-04-23 18:12 41.47047 -115.47122 40130 ft 444 kts 250°
2026-04-23 18:12 41.44692 -115.54727 40146 ft 444 kts 250°
2026-04-23 18:13 41.42328 -115.62341 40142 ft 444 kts 250°
2026-04-23 18:13 41.39959 -115.69947 40142 ft 444 kts 250°
2026-04-23 18:14 41.37988 -115.76260 40149 ft 444 kts 250°
2026-04-23 18:14 41.35208 -115.85139 40159 ft 445 kts 250°
2026-04-23 18:15 41.32838 -115.92687 40163 ft 445 kts 250°
2026-04-23 18:15 41.30443 -116.00291 40160 ft 444 kts 250°
2026-04-23 18:16 41.28049 -116.07876 40166 ft 445 kts 250°
2026-04-23 18:16 41.25647 -116.15465 40154 ft 445 kts 250°
2026-04-23 18:17 41.21996 -116.26815 40141 ft 445 kts 249°
2026-04-23 18:17 41.19487 -116.34287 40146 ft 445 kts 248°
2026-04-23 18:18 41.16956 -116.41791 40148 ft 445 kts 249°
2026-04-23 18:18 41.14426 -116.49305 40148 ft 445 kts 249°
2026-04-23 18:19 41.11901 -116.56804 40134 ft 445 kts 249°
2026-04-23 18:19 41.09371 -116.64300 40136 ft 445 kts 249°
2026-04-23 18:20 41.06853 -116.71740 40138 ft 445 kts 248°
2026-04-23 18:20 41.04310 -116.79236 40138 ft 445 kts 248°
2026-04-23 18:21 41.02195 -116.85455 40135 ft 445 kts 248°
2026-04-23 18:21 40.99646 -116.92929 40123 ft 445 kts 248°
2026-04-23 18:22 40.97083 -117.00422 40128 ft 446 kts 248°
2026-04-23 18:22 40.94522 -117.07894 40127 ft 446 kts 248°
2026-04-23 18:23 40.90681 -117.19061 40117 ft 446 kts 248°
2026-04-23 18:24 40.86819 -117.30243 40129 ft 446 kts 248°
2026-04-23 18:25 40.82959 -117.41377 40131 ft 446 kts 248°
2026-04-23 18:25 40.80372 -117.48815 40125 ft 445 kts 248°
2026-04-23 18:26 40.77785 -117.56238 40126 ft 444 kts 248°
2026-04-23 18:26 40.75209 -117.63601 40122 ft 445 kts 248°
2026-04-23 18:27 40.72612 -117.71008 40121 ft 445 kts 248°
2026-04-23 18:27 40.70011 -117.78407 40131 ft 444 kts 248°
2026-04-23 18:28 40.67405 -117.85802 40133 ft 444 kts 248°
2026-04-23 18:28 40.64796 -117.93187 40132 ft 444 kts 248°
2026-04-23 18:29 40.62200 -118.00516 40133 ft 444 kts 248°
2026-04-23 18:29 40.59582 -118.07889 40121 ft 444 kts 248°
2026-04-23 18:30 40.56964 -118.15241 40128 ft 444 kts 248°
2026-04-23 18:30 40.54339 -118.22598 40132 ft 445 kts 248°
2026-04-23 18:31 40.51705 -118.29955 40133 ft 445 kts 248°
2026-04-23 18:31 40.49067 -118.37306 40127 ft 444 kts 248°
2026-04-23 18:32 40.46430 -118.44637 40140 ft 443 kts 248°
2026-04-23 18:32 40.43808 -118.51909 40142 ft 443 kts 248°
2026-04-23 18:33 40.41161 -118.59231 40143 ft 444 kts 248°
2026-04-23 18:33 40.38510 -118.66546 40127 ft 444 kts 248°
2026-04-23 18:34 40.35852 -118.73860 40136 ft 444 kts 247°
2026-04-23 18:34 40.33194 -118.81158 40149 ft 443 kts 247°
2026-04-23 18:35 40.30532 -118.88447 40152 ft 443 kts 247°
2026-04-23 18:35 40.27864 -118.95734 40144 ft 443 kts 247°
2026-04-23 18:36 40.25212 -119.02960 40135 ft 442 kts 247°
2026-04-23 18:36 40.22542 -119.10221 40158 ft 443 kts 247°
2026-04-23 18:37 40.19859 -119.17490 40147 ft 444 kts 247°
2026-04-23 18:37 40.17173 -119.24755 40151 ft 444 kts 247°
2026-04-23 18:38 40.14477 -119.32028 40155 ft 444 kts 247°
2026-04-23 18:38 40.11796 -119.39242 40152 ft 443 kts 247°
2026-04-23 18:39 40.09095 -119.46494 40154 ft 443 kts 247°
2026-04-23 18:39 40.06389 -119.53742 40139 ft 443 kts 247°
2026-04-23 18:40 40.03691 -119.60945 40155 ft 441 kts 247°
2026-04-23 18:40 40.01000 -119.68116 40138 ft 439 kts 247°
2026-04-23 18:41 39.98318 -119.75252 40170 ft 437 kts 247°
2026-04-23 18:41 39.95642 -119.82346 40167 ft 439 kts 247°
2026-04-23 18:42 39.92938 -119.89500 40170 ft 440 kts 246°
2026-04-23 18:42 39.90228 -119.96656 40164 ft 440 kts 246°
2026-04-23 18:43 39.87510 -120.03814 40147 ft 441 kts 246°
2026-04-23 18:43 39.84788 -120.10968 40142 ft 440 kts 246°
2026-04-23 18:44 39.82063 -120.18036 40136 ft 440 kts 244°
2026-04-23 18:44 39.78740 -120.24760 40145 ft 442 kts 239°
2026-04-23 18:45 39.75243 -120.31355 40144 ft 442 kts 239°
2026-04-23 18:45 39.71765 -120.37944 40141 ft 442 kts 239°
2026-04-23 18:46 39.68318 -120.44492 40132 ft 441 kts 239°
2026-04-23 18:46 39.64850 -120.51075 40142 ft 442 kts 239°
2026-04-23 18:47 39.61379 -120.57653 40127 ft 442 kts 239°
2026-04-23 18:47 39.57900 -120.64229 40112 ft 441 kts 239°
2026-04-23 18:48 39.54416 -120.70794 40122 ft 441 kts 239°
2026-04-23 18:48 39.50936 -120.77349 40108 ft 441 kts 239°
2026-04-23 18:49 39.47453 -120.83891 40116 ft 441 kts 239°
2026-04-23 18:49 39.43992 -120.90377 40109 ft 440 kts 239°
2026-04-23 18:50 39.41074 -120.95840 40119 ft 440 kts 239°
2026-04-23 18:50 39.37025 -121.03403 40135 ft 440 kts 239°
2026-04-23 18:51 39.33298 -121.09708 40150 ft 444 kts 232°
2026-04-23 18:51 39.28787 -121.15235 40147 ft 448 kts 225°
2026-04-23 18:52 39.24064 -121.20485 40149 ft 448 kts 225°
2026-04-23 18:52 39.19370 -121.25710 40128 ft 448 kts 225°
2026-04-23 18:53 39.14667 -121.30964 40139 ft 447 kts 225°
2026-04-23 18:53 39.09976 -121.36208 40145 ft 446 kts 225°
2026-04-23 18:54 39.05297 -121.41433 40145 ft 445 kts 225°
2026-04-23 18:54 39.00618 -121.46649 40165 ft 444 kts 225°
2026-04-23 18:55 38.95944 -121.51848 40150 ft 445 kts 225°
2026-04-23 18:55 38.91264 -121.57045 40140 ft 444 kts 225°
2026-04-23 18:56 38.87375 -121.61356 40133 ft 444 kts 225°
2026-04-23 18:56 38.81993 -121.67303 40102 ft 430 kts 225°
2026-04-23 18:56 38.79727 -121.69804 39661 ft 427 kts 226°
2026-04-23 18:57 38.77472 -121.72292 39151 ft 426 kts 226°
2026-04-23 18:57 38.75222 -121.74776 38483 ft 427 kts 226°
2026-04-23 18:57 38.72970 -121.77262 37765 ft 428 kts 226°
2026-04-23 18:57 38.70715 -121.79747 37083 ft 428 kts 226°
2026-04-23 18:58 38.68460 -121.82229 36399 ft 427 kts 226°
2026-04-23 18:58 38.66194 -121.84719 35705 ft 428 kts 226°
2026-04-23 18:58 38.63922 -121.87216 34920 ft 431 kts 226°
2026-04-23 18:58 38.61642 -121.89720 34084 ft 433 kts 226°
2026-04-23 18:59 38.59346 -121.92239 33155 ft 437 kts 226°
2026-04-23 18:59 38.57071 -121.94729 32517 ft 433 kts 226°
2026-04-23 18:59 38.54789 -121.97223 31908 ft 430 kts 226°
2026-04-23 18:59 38.52523 -121.99697 31320 ft 427 kts 226°
2026-04-23 19:00 38.50267 -122.02160 30740 ft 424 kts 226°
2026-04-23 19:00 38.48029 -122.04602 30157 ft 422 kts 226°
2026-04-23 19:00 38.45804 -122.07027 29453 ft 420 kts 226°
2026-04-23 19:00 38.43589 -122.09442 28802 ft 417 kts 225°
2026-04-23 19:01 38.41380 -122.11850 28164 ft 415 kts 225°
2026-04-23 19:01 38.39188 -122.14238 27515 ft 415 kts 224°
2026-04-23 19:01 38.37019 -122.16598 26888 ft 414 kts 224°
2026-04-23 19:01 38.34829 -122.18977 26274 ft 413 kts 224°
2026-04-23 19:02 38.33353 -122.20580 25855 ft 413 kts 223°
2026-04-23 19:02 38.30458 -122.23720 25034 ft 413 kts 223°
2026-04-23 19:02 38.28263 -122.26099 24415 ft 413 kts 222°
2026-04-23 19:02 38.26066 -122.28476 23775 ft 415 kts 222°
2026-04-23 19:03 38.23858 -122.30863 23047 ft 415 kts 222°
2026-04-23 19:03 38.21657 -122.33242 22381 ft 415 kts 222°
2026-04-23 19:03 38.19463 -122.35611 21733 ft 414 kts 222°
2026-04-23 19:03 38.17270 -122.37978 21106 ft 413 kts 222°
2026-04-23 19:04 38.15083 -122.40336 20498 ft 412 kts 221°
2026-04-23 19:04 38.12899 -122.42688 19890 ft 411 kts 221°
2026-04-23 19:04 38.10746 -122.45006 19294 ft 410 kts 221°
2026-04-23 19:04 38.08563 -122.47353 18692 ft 410 kts 221°
2026-04-23 19:05 38.06377 -122.49703 17931 ft 412 kts 221°
2026-04-23 19:05 38.04186 -122.52056 17242 ft 412 kts 221°
2026-04-23 19:05 38.02003 -122.54400 16584 ft 411 kts 221°
2026-04-23 19:05 37.99817 -122.56744 15922 ft 410 kts 220°
2026-04-23 19:06 37.97668 -122.59046 15326 ft 409 kts 220°
2026-04-23 19:06 37.95501 -122.61363 14729 ft 404 kts 220°
2026-04-23 19:06 37.93231 -122.63173 14224 ft 369 kts 199°
2026-04-23 19:06 37.90841 -122.63766 14112 ft 341 kts 180°
2026-04-23 19:07 37.88489 -122.63498 13820 ft 342 kts 168°
2026-04-23 19:07 37.86166 -122.62716 13452 ft 347 kts 159°
2026-04-23 19:07 37.84072 -122.61286 13070 ft 339 kts 139°
2026-04-23 19:07 37.82283 -122.59304 12751 ft 344 kts 137°
2026-04-23 19:08 37.80465 -122.57303 12394 ft 348 kts 138°
2026-04-23 19:08 37.78628 -122.55334 12033 ft 345 kts 139°
2026-04-23 19:08 37.76817 -122.53413 11686 ft 340 kts 139°
2026-04-23 19:08 37.75016 -122.51509 11348 ft 335 kts 139°
2026-04-23 19:09 37.73242 -122.49635 11119 ft 326 kts 139°
2026-04-23 19:09 37.72104 -122.48428 11081 ft 317 kts 139°
2026-04-23 19:09 37.70450 -122.46669 11051 ft 305 kts 138°
2026-04-23 19:09 37.68829 -122.44943 11054 ft 304 kts 138°
2026-04-23 19:10 37.67207 -122.43215 11055 ft 304 kts 139°
2026-04-23 19:10 37.65614 -122.41520 11054 ft 301 kts 139°
2026-04-23 19:10 37.64044 -122.39854 11043 ft 287 kts 138°
2026-04-23 19:10 37.62541 -122.38261 11034 ft 273 kts 139°
2026-04-23 19:11 37.61165 -122.36723 10902 ft 257 kts 129°
2026-04-23 19:11 37.60517 -122.34769 10647 ft 242 kts 90°
2026-04-23 19:11 37.60676 -122.32690 10262 ft 238 kts 89°
2026-04-23 19:11 37.60454 -122.30639 9694 ft 235 kts 97°
2026-04-23 19:12 37.60145 -122.28603 9016 ft 236 kts 98°
2026-04-23 19:12 37.59901 -122.26531 8255 ft 240 kts 93°
2026-04-23 19:12 37.59803 -122.24456 7730 ft 234 kts 89°
2026-04-23 19:12 37.59802 -122.22448 7151 ft 230 kts 85°
2026-04-23 19:13 37.59901 -122.20445 6550 ft 228 kts 83°
2026-04-23 19:13 37.60047 -122.18451 5933 ft 227 kts 83°
2026-04-23 19:13 37.60181 -122.16478 5331 ft 224 kts 90°
2026-04-23 19:13 37.59726 -122.14674 4846 ft 217 kts 131°
2026-04-23 19:14 37.58481 -122.13897 4785 ft 198 kts 182°
2026-04-23 19:14 37.57279 -122.14534 4817 ft 191 kts 232°
2026-04-23 19:14 37.56700 -122.16021 4761 ft 190 kts 247°
2026-04-23 19:14 37.55934 -122.17468 3886 ft 201 kts 251°
2026-04-23 19:15 37.55733 -122.19164 3250 ft 196 kts 266°
2026-04-23 19:15 37.55717 -122.20765 3155 ft 164 kts 290°
2026-04-23 19:15 37.56107 -122.22194 2619 ft 184 kts 286°
2026-04-23 19:15 37.56548 -122.23645 2258 ft 172 kts 295°
2026-04-23 19:16 37.57063 -122.25053 1971 ft 183 kts 292°
2026-04-23 19:16 37.57507 -122.26571 1399 ft 179 kts 290°
2026-04-23 19:16 37.58003 -122.27813 1455 ft 145 kts 300°
2026-04-23 19:17 37.58914 -122.29899 1089 ft 131 kts 298°
2026-04-23 19:17 37.59329 -122.30888 922 ft 133 kts 298°
2026-04-23 19:17 37.59766 -122.31933 737 ft 136 kts 298°
2026-04-23 19:17 37.59976 -122.32434 659 ft 137 kts 299°
2026-04-23 19:18 37.60177 -122.32912 578 ft 137 kts 299°
2026-04-23 19:18 37.60615 -122.33978 369 ft 138 kts 298°
2026-04-23 19:18 37.61049 -122.35070 221 ft 141 kts 300°
2026-04-23 19:19 37.61947 -122.37130 19 ft 108 kts 296°
2026-04-23 19:19 37.62175 -122.37690 30 ft 30 kts 292°
2026-04-23 19:20 37.62220 -122.38013 29 ft 1 kts 275°
2026-04-23 19:20 37.62221 -122.38024 29 ft 1 kts 276°
2026-04-23 19:20 37.62222 -122.38027 29 ft 0 kts 276°
2026-04-23 19:21 37.62222 -122.38362 25 ft 30 kts 262°
2026-04-23 19:21 37.62223 -122.38620 23 ft 25 kts 280°
2026-04-23 19:22 37.62252 -122.38832 19 ft 25 kts 262°
2026-04-23 19:22 37.62243 -122.39049 22 ft 25 kts 251°
2026-04-23 19:22 37.62006 -122.39353 25 ft 25 kts 249°
2026-04-23 19:23 37.61964 -122.39419 25 ft 7 kts 200°
2026-04-23 19:23 37.61917 -122.39406 25 ft 7 kts 159°
2026-04-23 19:23 37.61894 -122.39394 23 ft 0 kts 158°
2026-04-23 19:26 37.61894 -122.39395 22 ft 0 kts 158°